Tracking 29892 objects as of 21-Nov-2024
HD Live streaming from Space Station
objects crossing your sky now

SECOR 4 (EGRS 4)

Track SECOR 4 (EGRS 4) now!
10-day predictions
SECOR 4 (EGRS 4) is classified as:


NORAD ID: 1315
Int'l Code: 1965-027B
Perigee: 1,275.6 km
Apogee: 1,320.7 km
Inclination: 90.2 °
Period: 111.4 minutes
Semi major axis: 7669 km
RCS: 0.2018 m2 (medium)
Launch date: April 3, 1965
Source: United States (US)
Launch site: AIR FORCE WESTERN TEST RANGE (AFWTR)
Your satellite tracking list
Your tracking list is empty




NASA's NSSDC Master Catalog

Two Line Element Set (TLE):
1 01315U 65027B   24325.38687681 -.00000048  00000-0 -20253-3 0  9992
2 01315  90.2413   2.7633 0029407 258.0077 162.4363 12.92649186812793
Source of the keplerian elements: AFSPC